When you browse on this site, cookies collect data to enhance your experience and personalize the content and advertising you see.
Visit our Privacy Policy to learn more. By continuing to use the site, you agree to this use of cookies and data.
  • In Czech Republic
  • List of Countries
  • For 7 days
  • Water Temperature
  • Weather Map
  • Weather Widgets
  • user-avatar
    Login

    Hourly Weather Kalgoorlie

    Today, 18 February, Tuesday

    Time Temperature Precipitation Wind Pressure Humidity
    00:00 +18°C° 0 mm 10 mps 733 mmHg 58%
    01:00 +17°C° 0 mm 9 mps 733 mmHg 62%
    02:00 +16°C° 0 mm 8 mps 733 mmHg 65%
    03:00 +15°C° 0 mm 8 mps 733 mmHg 66%
    04:00 +15°C° 0 mm 8 mps 733 mmHg 68%
    05:00 +13°C° 0 mm 8 mps 733 mmHg 70%
    06:00 +15°C° 0 mm 8 mps 734 mmHg 67%
    07:00 +16°C° 0 mm 7 mps 734 mmHg 63%
    08:00 +17°C° 0 mm 7 mps 734 mmHg 60%
    09:00 +20°C° 0 mm 7 mps 734 mmHg 51%
    10:00 +22°C° 0 mm 7 mps 734 mmHg 43%
    11:00 +24°C° 0 mm 7 mps 733 mmHg 35%
    12:00 +26°C° 0 mm 7 mps 733 mmHg 32%
    13:00 +28°C° 0 mm 6 mps 732 mmHg 28%
    14:00 +29°C° 0 mm 6 mps 732 mmHg 25%
    15:00 +29°C° 0 mm 5 mps 731 mmHg 24%
    16:00 +30°C° 0 mm 5 mps 731 mmHg 24%
    17:00 +30°C° 0 mm 5 mps 731 mmHg 23%
    18:00 +29°C° 0 mm 5 mps 731 mmHg 25%
    19:00 +28°C° 0 mm 5 mps 731 mmHg 26%
    20:00 +27°C° 0 mm 5 mps 731 mmHg 27%
    21:00 +26°C° 0 mm 6 mps 731 mmHg 28%
    22:00 +26°C° 0 mm 7 mps 731 mmHg 29%
    23:00 +24°C° 0 mm 7 mps 731 mmHg 30%

    Tomorrow, 19 February, Wednesday

    Time Temperature Precipitation Wind Pressure Humidity
    00:00 +22°C° 0 mm 7 mps 731 mmHg 39%
    01:00 +21°C° 0 mm 8 mps 730 mmHg 48%
    02:00 +18°C° 0 mm 8 mps 730 mmHg 56%
    03:00 +17°C° 0 mm 7 mps 730 mmHg 58%
    04:00 +17°C° 0 mm 7 mps 731 mmHg 60%
    05:00 +17°C° 0 mm 6 mps 731 mmHg 62%
    06:00 +17°C° 0 mm 6 mps 731 mmHg 60%
    07:00 +18°C° 0 mm 7 mps 731 mmHg 59%
    08:00 +18°C° 0 mm 7 mps 731 mmHg 57%
    09:00 +21°C° 0 mm 6 mps 731 mmHg 50%
    10:00 +24°C° 0 mm 6 mps 731 mmHg 42%
    11:00 +27°C° 0 mm 5 mps 731 mmHg 35%
    12:00 +29°C° 0 mm 5 mps 730 mmHg 31%
    13:00 +30°C° 0 mm 5 mps 730 mmHg 28%
    14:00 +32°C° 0 mm 4 mps 729 mmHg 25%
    15:00 +32°C° 0 mm 5 mps 729 mmHg 25%
    16:00 +32°C° 0 mm 5 mps 729 mmHg 24%
    17:00 +32°C° 0 mm 6 mps 729 mmHg 24%
    18:00 +30°C° 0 mm 6 mps 729 mmHg 25%
    19:00 +29°C° 0 mm 6 mps 729 mmHg 26%
    20:00 +28°C° 0 mm 6 mps 729 mmHg 27%
    21:00 +28°C° 0 mm 6 mps 729 mmHg 28%
    22:00 +27°C° 0 mm 6 mps 729 mmHg 29%
    23:00 +26°C° 0 mm 5 mps 729 mmHg 31%

    Day after tomorrow, 20 February, Thursday

    Time Temperature Precipitation Wind Pressure Humidity
    00:00 +24°C° 0 mm 6 mps 729 mmHg 36%
    01:00 +23°C° 0 mm 6 mps 729 mmHg 41%
    02:00 +21°C° 0 mm 7 mps 729 mmHg 47%
    03:00 +21°C° 0 mm 6 mps 729 mmHg 50%
    04:00 +20°C° 0 mm 6 mps 730 mmHg 54%
    05:00 +19°C° 0 mm 6 mps 730 mmHg 57%
    06:00 +20°C° 0 mm 6 mps 730 mmHg 55%
    07:00 +20°C° 0 mm 5 mps 731 mmHg 54%
    08:00 +21°C° 0 mm 5 mps 731 mmHg 52%
    09:00 +22°C° 0 mm 5 mps 731 mmHg 46%
    10:00 +25°C° 0 mm 5 mps 732 mmHg 41%
    11:00 +26°C° 0 mm 5 mps 732 mmHg 35%
    12:00 +27°C° 0 mm 5 mps 731 mmHg 33%
    13:00 +28°C° 0 mm 5 mps 731 mmHg 31%
    14:00 +29°C° 0 mm 5 mps 731 mmHg 29%
    15:00 +29°C° 0 mm 6 mps 731 mmHg 29%
    16:00 +29°C° 0 mm 6 mps 731 mmHg 30%
    17:00 +29°C° 0 mm 6 mps 731 mmHg 30%
    18:00 +28°C° 0 mm 6 mps 731 mmHg 32%
    19:00 +27°C° 0 mm 6 mps 731 mmHg 33%
    20:00 +26°C° 0 mm 6 mps 731 mmHg 35%
    21:00 +26°C° 0 mm 6 mps 731 mmHg 37%
    22:00 +25°C° 0 mm 5 mps 731 mmHg 38%
    23:00 +23°C° 0 mm 5 mps 731 mmHg 40%

    21 February, Friday

    Time Temperature Precipitation Wind Pressure Humidity
    00:00 +23°C° 0 mm 6 mps 731 mmHg 44%
    01:00 +22°C° 0 mm 7 mps 731 mmHg 48%
    02:00 +21°C° 0 mm 7 mps 731 mmHg 52%
    03:00 +20°C° 0 mm 7 mps 731 mmHg 55%
    04:00 +19°C° 0 mm 6 mps 731 mmHg 58%
    05:00 +19°C° 0 mm 5 mps 732 mmHg 62%
    06:00 +19°C° 0 mm 6 mps 732 mmHg 60%
    07:00 +20°C° 0 mm 6 mps 732 mmHg 58%
    08:00 +20°C° 0 mm 6 mps 733 mmHg 56%
    09:00 +23°C° 0 mm 6 mps 733 mmHg 47%
    10:00 +26°C° 0 mm 6 mps 733 mmHg 38%
    11:00 +28°C° 0 mm 6 mps 733 mmHg 29%
    12:00 +29°C° 0 mm 6 mps 732 mmHg 28%
    13:00 +30°C° 0 mm 5 mps 731 mmHg 26%
    14:00 +32°C° 0 mm 5 mps 731 mmHg 25%
    21:00 +30°C° 0 mm 4 mps 728 mmHg 32%
    22:00 +28°C° 0 mm 5 mps 731 mmHg 33%
    23:00 +28°C° 0 mm 5 mps 731 mmHg 34%

    22 February, Saturday

    Time Temperature Precipitation Wind Pressure Humidity
    00:00 +27°C° 0 mm 5 mps 731 mmHg 36%
    01:00 +27°C° 0 mm 4 mps 730 mmHg 37%
    02:00 +26°C° 0 mm 4 mps 730 mmHg 38%
    03:00 +25°C° 0 mm 4 mps 730 mmHg 40%
    04:00 +25°C° 0 mm 4 mps 730 mmHg 42%
    05:00 +23°C° 0 mm 4 mps 730 mmHg 43%
    06:00 +25°C° 0 mm 4 mps 731 mmHg 42%
    07:00 +26°C° 0 mm 5 mps 731 mmHg 41%
    08:00 +27°C° 0 mm 6 mps 731 mmHg 39%
    09:00 +28°C° 0 mm 5 mps 731 mmHg 37%
    10:00 +30°C° 0 mm 5 mps 731 mmHg 35%
    11:00 +33°C° 0 mm 4 mps 731 mmHg 33%
    12:00 +32°C° 0 mm 4 mps 730 mmHg 35%
    13:00 +32°C° 0 mm 4 mps 729 mmHg 37%
    14:00 +30°C° 0 mm 3 mps 729 mmHg 40%
    15:00 +29°C° 0 mm 3 mps 729 mmHg 42%
    16:00 +29°C° 0 mm 3 mps 728 mmHg 44%
    17:00 +28°C° 0 mm 3 mps 728 mmHg 46%
    18:00 +28°C° 0 mm 3 mps 728 mmHg 48%
    19:00 +27°C° 0 mm 3 mps 728 mmHg 50%
    20:00 +27°C° 0 mm 3 mps 729 mmHg 52%
    21:00 +27°C° 0 mm 3 mps 729 mmHg 51%
    22:00 +27°C° 0 mm 3 mps 729 mmHg 50%
    23:00 +27°C° 0 mm 3 mps 729 mmHg 49%

    23 February, Sunday

    Time Temperature Precipitation Wind Pressure Humidity
    00:00 +26°C° 0 mm 2 mps 729 mmHg 49%
    01:00 +26°C° 0 mm 2 mps 728 mmHg 49%
    02:00 +26°C° 0 mm 1 mps 728 mmHg 49%
    03:00 +26°C° 0 mm 2 mps 728 mmHg 49%
    04:00 +25°C° 0 mm 3 mps 728 mmHg 49%
    05:00 +25°C° 0 mm 3 mps 728 mmHg 49%
    06:00 +27°C° 0 mm 4 mps 728 mmHg 45%
    07:00 +28°C° 0 mm 5 mps 729 mmHg 42%
    08:00 +29°C° 0 mm 6 mps 729 mmHg 38%
    09:00 +32°C° 0 mm 6 mps 729 mmHg 34%
    10:00 +35°C° 0 mm 6 mps 728 mmHg 29%
    11:00 +37°C° 0 mm 5 mps 728 mmHg 25%
    12:00 +38°C° 0 mm 4 mps 728 mmHg 23%
    13:00 +38°C° 0 mm 3 mps 727 mmHg 22%
    14:00 +39°C° 0 mm 2 mps 726 mmHg 20%
    15:00 +39°C° 0 mm 1 mps 726 mmHg 19%
    16:00 +39°C° 0 mm 1 mps 726 mmHg 19%
    17:00 +40°C° 0 mm 1 mps 726 mmHg 18%
    18:00 +38°C° 0 mm 2 mps 726 mmHg 20%
    19:00 +37°C° 0 mm 2 mps 726 mmHg 22%
    20:00 +36°C° 0 mm 3 mps 727 mmHg 24%
    21:00 +34°C° 0.1 mm 4 mps 727 mmHg 28%
    22:00 +33°C° 0.1 mm 5 mps 728 mmHg 32%
    23:00 +32°C° 0.1 mm 5 mps 728 mmHg 36%
    Show more